EW7175 Weather Reports


Display with metric or nautical units.
time (UTC)temp
F
wind
direction
speed
MPH
gust
MPH
rain 1hr
in
rain 24hr
in
rain mn
in
humidity
%
barometer
mb
20260510150004 81 55 0.0 0.0 0.00 0.00 0.00 79 1013.2
20260510144502 80 40 0.0 0.0 0.00 0.00 0.00 83 1013.1
20260510143059 80 39 0.0 0.0 0.00 0.00 0.00 82 1013.0
20260510141554 79 69 0.0 0.0 0.00 0.00 0.00 86 1012.9
20260510140051 78 41 0.0 0.0 0.00 0.00 0.00 87 1013.0
20260510134553 77 15 0.0 0.0 0.00 0.00 0.00 89 1013.0
20260510133045 77 37 0.0 0.0 0.00 0.00 0.00 90 1012.7
20260510131546 76 128 0.0 0.0 0.00 0.00 0.00 90 1012.4
20260510130039 75 55 0.0 0.0 0.00 0.00 0.00 92 1012.1
20260510124537 75 51 0.0 0.0 0.00 0.00 0.00 92 1011.9
20260510123036 75 59 0.0 0.0 0.00 0.00 0.00 92 1011.7
20260510121532 75 169 0.0 0.0 0.00 0.00 0.00 93 1011.3
20260510120031 74 169 0.0 0.0 0.00 0.00 0.00 93 1011.1
20260510114529 74 169 0.0 0.0 0.00 0.00 0.00 93 1010.9
20260510113025 74 169 0.0 0.0 0.00 0.00 0.00 93 1010.2
20260510111523 74 169 0.0 0.0 0.00 0.00 0.00 93 1009.9
20260510110032 74 169 0.0 0.0 0.00 0.00 0.00 93 1009.6
20260510104520 74 169 0.0 0.0 0.00 0.00 0.00 93 1009.4
20260510103019 74 169 0.0 0.0 0.00 0.00 0.00 93 1009.6
20260510101518 74 134 0.0 0.0 0.00 0.00 0.00 93 1009.3
20260510100018 74 176 0.0 0.0 0.00 0.00 0.00 94 1009.3
20260510094537 74 169 0.0 0.0 0.00 0.00 0.00 95 1009.1
20260510093017 73 171 0.0 0.0 0.00 0.00 0.00 95 1009.0
20260510091521 73 189 0.0 0.0 0.00 0.00 0.00 95 1009.0
20260510090017 73 189 0.0 0.0 0.00 0.00 0.00 94 1008.9
20260510084513 73 189 0.0 0.0 0.00 0.00 0.00 94 1009.0
20260510083012 73 189 0.0 0.0 0.00 0.00 0.00 94 1009.1
20260510081515 73 189 0.0 0.0 0.00 0.00 0.00 94 1009.0
20260510080014 73 189 0.0 0.0 0.00 0.00 0.00 94 1009.0
20260510074509 73 188 0.0 0.0 0.00 0.00 0.00 93 1009.1
20260510073008 74 188 0.0 0.0 0.00 0.00 0.00 93 1009.2
20260510071504 74 188 0.0 0.0 0.00 0.00 0.00 93 1009.3
20260510070007 74 213 0.0 0.0 0.00 0.00 0.00 93 1009.4
20260510064502 74 215 0.0 0.0 0.00 0.00 0.00 92 1009.3
20260510063001 74 215 0.0 0.0 0.00 0.00 0.00 92 1009.3
20260510061600 74 215 0.0 0.0 0.00 0.00 0.00 92 1009.3
20260510060101 74 215 0.0 0.0 0.00 0.00 0.00 92 1009.4
20260510054557 74 215 0.0 0.0 0.00 0.00 0.00 92 1009.4
20260510053101 74 215 0.0 0.0 0.00 0.00 0.00 91 1009.6
20260510051557 75 215 0.0 0.0 0.00 0.00 0.00 90 1009.7
20260510050051 75 215 0.0 0.0 0.00 0.00 0.00 90 1009.7
20260510044551 75 215 0.0 0.0 0.00 0.00 0.00 89 1009.7
20260510043100 76 215 0.0 0.0 0.00 0.00 0.00 88 1009.8
20260510041550 76 217 0.0 0.0 0.00 0.00 0.00 88 1009.7
20260510040050 76 217 0.0 0.0 0.00 0.00 0.00 87 1009.6
20260510034549 77 81 0.0 0.0 0.00 0.00 0.00 86 1009.9
20260510033100 77 80 0.0 0.0 0.00 0.00 0.00 87 1009.9
20260510031551 77 102 0.0 0.0 0.00 0.00 0.00 89 1009.8
20260510030048 77 110 0.0 0.0 0.00 0.00 0.00 90 1009.7
20260510024547 75 190 0.0 0.0 0.00 0.00 0.00 87 1009.3
20260510023042 75 192 0.0 0.0 0.00 0.00 0.00 85 1008.6
20260510021548 75 192 0.0 0.0 0.00 0.00 0.00 83 1008.2
20260510020042 76 193 0.0 0.0 0.00 0.00 0.00 79 1007.7
20260510014543 76 193 0.0 0.0 0.00 0.00 0.00 76 1007.2
20260510013047 77 193 0.0 0.0 0.00 0.00 0.00 73 1007.2
20260510011544 78 193 0.0 0.0 0.00 0.00 0.00 68 1007.2
20260510010040 79 102 0.0 0.0 0.00 0.00 0.00 69 1007.4
20260510004543 84 93 0.0 0.0 0.00 0.00 0.00 61 1007.1
20260510003038 85 159 0.0 0.0 0.00 0.00 0.00 58 1006.6
20260510001542 87 166 0.0 6.0 0.00 0.00 0.00 67 1006.3
20260510000047 88 306 0.0 0.0 0.00 0.00 0.00 64 1006.3
20260509234537 89 306 0.0 0.0 0.00 0.00 0.00 63 1006.1
20260509233036 89 306 0.0 0.0 0.00 0.00 0.00 63 1006.2
20260509231540 89 306 0.0 0.0 0.00 0.00 0.00 64 1006.1
20260509230036 90 306 0.0 1.0 0.00 0.00 0.00 60 1006.0
20260509224535 91 306 0.0 2.0 0.00 0.00 0.00 56 1005.9
20260509223033 91 309 1.0 3.0 0.00 0.00 0.00 56 1006.0
20260509221533 92 284 1.0 7.0 0.00 0.00 0.00 54 1005.8
20260509220032 92 286 1.0 4.0 0.00 0.00 0.00 56 1005.9
20260509214527 92 302 1.0 5.0 0.00 0.00 0.00 56 1005.8
20260509213029 91 264 3.0 7.0 0.00 0.00 0.00 59 1005.8
20260509211521 91 244 0.0 3.0 0.00 0.00 0.00 59 1006.0
20260509210019 90 156 1.0 3.0 0.00 0.00 0.00 61 1006.1
20260509204515 90 161 0.0 2.0 0.00 0.00 0.00 64 1006.4
20260509203016 89 258 0.0 0.0 0.00 0.00 0.00 63 1006.6
20260509201509 90 292 0.0 0.0 0.00 0.00 0.00 63 1006.7
20260509200008 89 271 0.0 0.0 0.00 0.00 0.00 66 1006.9
20260509194507 89 317 0.0 0.0 0.00 0.00 0.00 66 1007.0
20260509193003 89 20 0.0 0.0 0.00 0.00 0.00 66 1007.2
20260509191608 87 307 2.0 5.0 0.00 0.00 0.00 69 1007.5
20260509190058 87 299 0.0 0.0 0.00 0.00 0.00 69 1007.4
20260509184601 86 360 0.0 0.0 0.00 0.00 0.00 68 1007.7
20260509183059 86 235 0.0 0.0 0.00 0.00 0.00 70 1008.0
20260509181554 86 166 0.0 0.0 0.00 0.00 0.00 72 1008.1
20260509180052 85 190 0.0 0.0 0.00 0.00 0.00 73 1008.4
20260509174614 85 162 0.0 0.0 0.00 0.00 0.00 74 1008.7
20260509173053 85 178 0.0 0.0 0.00 0.00 0.00 75 1008.5
20260509171547 85 134 0.0 0.0 0.00 0.00 0.00 76 1008.4
20260509170044 83 163 0.0 0.0 0.00 0.00 0.00 76 1008.5
20260509164539 81 184 0.0 0.0 0.00 0.00 0.00 83 1008.4
20260509163040 80 177 0.0 0.0 0.00 0.00 0.00 85 1008.5
20260509161534 79 316 0.0 0.0 0.00 0.00 0.00 84 1008.8
20260509160033 79 65 0.0 0.0 0.00 0.00 0.00 85 1009.0
20260509154531 79 65 0.0 0.0 0.00 0.00 0.00 85 1009.0
20260509153042 79 65 0.0 0.0 0.00 0.00 0.00 86 1009.2
20260509151528 78 65 0.0 0.0 0.00 0.00 0.00 87 1009.0